NOAA 16 DEB

Satellite information

Favourite Embed

Satellite Type and Status

DEBRISIN ORBIT

Key statistics

Satellite NOAA 16 DEB at a glance.

Uptime

9215

Days in orbit

Revolutions

≈ 14.2

Per day

Orbit

SSO

Sun Synchronous Orbit

Inclination

99.2

Latest

Satellite identification and parameters

Extended collection of information and parameters for NOAA 16 DEB.

Object identification

Identified? True

Debris? True

Object name: NOAA 16 DEB

International designator: 2000-055QW

Object number (NORAD): 42354

Object ID (CCSDS): 42354

Country: UNITED STATES OF AMERICA (US)

Current information (Y/N): Y

RCS size: SMALL

Orbital parameters

Period: 101.753 minutes

Inclination: 99.1543 deg

SMA: 7219.817 km

Apoapsis: 857.452 km

Periapsis: 825.912 km

RAAN: 85.4276 deg

Eccentricy: 0.00218425

Argument of periapsis: 123.2762 deg

Mean anomaly: 237.0507 deg

Mean motion: 14.15185782 rev/day

Mean motion (dot): 0.00019353 rev/day2

B* drag term: 0.0099389465 1/REarth

Two-line elements (TLE)

Creation date: Dec. 13, 2025, 5:47 p.m.

Reference frame: TEME

Reference center: EARTH

Epoch: Dec. 13, 2025, 4:58 a.m. UTC

TLE line 0: 0 NOAA 16 DEB

TLE line 1: 1 42354U 00055QW 25347.20697197 .00019353 00000-0 99389-2 0 9991

TLE line 2: 2 42354 99.1543 85.4276 0021842 123.2762 237.0507 14.15185782494220

Live tracking on map

Real-time ground track for satellite NOAA 16 DEB.

In-orbit conjunctions

A list of the most updated potential collisions computed for object NOAA 16 DEB.

Target Orbit TCA Probability of collision Miss distance Type
METEOR 1-24 LEO 2025-12-13 06:58:03 0.0001014719 346.0 (m) PAYLOAD
CZ-6A DEB SSO 2025-09-07 07:53:48 0.000390272 55.0 (m) DEBRIS
CZ-6A DEB SSO 2024-09-25 07:13:37 0.0002671367 417.0 (m) DEBRIS

Associated space launch

The NOAA K, L and M POES satellites begin the fifth generation of improved environmental monitoring in support of NOAA missions. The instrument payload has significant improvements and additions/deletions. The instrument changes have effected the spacecraft subsystems and data formats.

NOAA 16 DEB was lifted into orbit during the mission ‘Titan II SLV | NOAA 16’, on board a Titan II SLV space rocket.

The launch took place on Sept. 21, 2000, 10:22 a.m. from Space Launch Complex 4W.

For more information about the launch, click the button.

Launch to space Titan II SLV | NOAA 16
Titan II SLV | NOAA 16

Agency: N/A

Status: Launch Successful

Launch date: Sept. 21, 2000, 10:22 a.m. UTC

Rocket: Titan II SLV

Launch pad: Space Launch Complex 4W

Location: Vandenberg SFB, CA, USA

...

Latest news about this satellite

There are no fresh news available about this satellite. Check back as we update our databases every day.


Newsletter sign-up

Weekly statistics, charts and insights to help you stay on top of the space industry.